Location: Leuk
(46.3174°N, 7.6341°E)
Time: 15:59:43
(UTC+00:00)

Cosmos 1484 Rocket - Pass Details

Date: 09 March 2021
Orbit: 506 x 558 km, 97.4° (Epoch: 18 April)

Event Time Altitude Azimuth Distance (km) Brightness Sun altitude
Rises 04:26:51 0° 7° (N) 2,621 6.5 -15.8°
Reaches altitude 10° 04:28:59 10° 2° (N) 1,731 5.5 -15.4°
Maximum altitude 04:32:34 49° 287° (WNW) 665 2.8 -14.8°
Enters shadow 04:35:18 16° 217° (SW) 1,380 4.4 -14.3°
